GW4392 Weather Reports


time (UTC)temp
C
wind
direction
speed
KPH
gust
KPH
rain 1hr
cm
rain 24hr
cm
rain mn
cm
humidity
%
barometer
mb
20260505152858 12 194 0.0 1.6 0.00 0.00 0.00 85 1016.7
20260505152355 12 272 3.2 4.8 0.00 0.00 0.00 85 1016.5
20260505151855 12 132 3.2 4.8 0.00 0.00 0.00 86 1016.6
20260505151352 12 134 0.0 1.6 0.00 0.00 0.00 86 1016.7
20260505150849 12 168 0.0 1.6 0.00 0.00 0.00 86 1016.6
20260505150346 12 197 3.2 4.8 0.00 0.00 0.00 86 1016.6
20260505140310 12 121 0.0 3.2 0.00 0.00 0.00 87 1016.1
20260505130234 11 162 3.2 3.2 0.00 0.00 0.00 88 1015.9
20260505124724 11 166 0.0 3.2 0.00 0.00 0.00 88 1015.6
20260505124221 11 154 3.2 3.2 0.00 0.00 0.00 88 1015.6
20260505123716 11 187 1.6 4.8 0.00 0.00 0.00 88 1015.5
20260505123214 11 144 3.2 4.8 0.00 0.00 0.00 88 1015.5
20260505122710 11 164 0.0 3.2 0.00 0.00 0.00 88 1015.6
20260505122208 11 150 0.0 3.2 0.00 0.00 0.00 88 1015.4
20260505121704 11 152 4.8 4.8 0.00 0.00 0.00 88 1015.9
20260505121201 11 150 1.6 3.2 0.00 0.00 0.00 88 1015.5
20260505120657 11 157 1.6 4.8 0.00 0.00 0.00 89 1015.5
20260505120154 11 135 1.6 4.8 0.00 0.00 0.00 89 1015.5
20260505115652 11 149 3.2 6.4 0.00 0.00 0.00 88 1015.5
20260505115151 11 156 4.8 4.8 0.00 0.00 0.00 89 1015.5
20260505114648 11 166 4.8 6.4 0.00 0.00 0.00 89 1015.6
20260505114144 11 163 0.0 1.6 0.00 0.00 0.00 89 1015.4
20260505113640 11 180 3.2 4.8 0.00 0.00 0.00 89 1015.4
20260505113137 11 195 4.8 6.4 0.00 0.00 0.00 89 1015.3
20260505112633 11 160 0.0 4.8 0.00 0.00 0.00 89 1015.4
20260505112132 11 174 6.4 6.4 0.00 0.00 0.00 89 1015.5
20260505111631 11 190 3.2 4.8 0.00 0.00 0.00 89 1015.4
20260505111127 11 142 4.8 6.4 0.00 0.00 0.00 89 1015.4
20260505110624 11 184 1.6 4.8 0.00 0.00 0.00 89 1015.4
20260505110121 11 192 6.4 6.4 0.00 0.00 0.00 89 1015.1
20260505102057 11 185 3.2 4.8 0.00 0.00 0.00 89 1015.0
20260505101555 11 150 3.2 6.4 0.00 0.00 0.00 89 1014.9
20260505101051 11 181 8.0 11.3 0.00 0.00 0.00 89 1015.0
20260505100548 11 184 1.6 3.2 0.00 0.00 0.00 89 1015.0
20260505100045 11 175 1.6 4.8 0.00 0.00 0.00 89 1014.8
20260505095541 11 179 1.6 3.2 0.00 0.00 0.00 89 1015.0
20260505095037 11 194 3.2 4.8 0.00 0.00 0.00 89 1014.9
20260505094534 11 190 4.8 6.4 0.00 0.00 0.00 89 1015.0
20260505094030 11 165 1.6 4.8 0.00 0.00 0.00 90 1014.8
20260505093527 11 176 4.8 6.4 0.00 0.00 0.00 90 1015.0
20260505093024 11 156 3.2 4.8 0.00 0.00 0.00 90 1015.0
20260505092521 11 181 4.8 6.4 0.00 0.00 0.00 90 1014.5
20260505092020 11 159 3.2 4.8 0.00 0.00 0.00 91 1014.9
20260505091516 11 175 1.6 3.2 0.00 0.00 0.00 91 1014.6
20260505091014 11 185 1.6 3.2 0.00 0.00 0.00 91 1014.8
20260505090512 11 201 1.6 4.8 0.00 0.00 0.00 91 1014.7
20260505090010 11 171 1.6 6.4 0.00 0.00 0.00 91 1014.6
20260505085508 11 169 6.4 6.4 0.00 0.00 0.00 91 1014.9
20260505085005 10 172 3.2 4.8 0.00 0.00 0.00 91 1014.8
20260505084503 10 154 4.8 4.8 0.00 0.00 0.00 91 1014.8
20260505084001 10 163 1.6 3.2 0.00 0.00 0.00 91 1014.7
20260505083458 10 174 1.6 4.8 0.00 0.00 0.00 91 1014.7
20260505082954 10 160 3.2 3.2 0.00 0.00 0.00 92 1014.6
20260505082450 10 163 1.6 1.6 0.00 0.00 0.00 91 1014.6
20260505081947 11 189 1.6 3.2 0.00 0.00 0.00 91 1014.7
20260505081444 11 181 1.6 1.6 0.00 0.00 0.00 91 1014.7
20260505080940 11 154 1.6 3.2 0.00 0.00 0.00 90 1014.7
20260505080436 11 184 3.2 4.8 0.00 0.00 0.00 90 1014.4
20260505075932 11 161 3.2 4.8 0.00 0.00 0.00 90 1014.3
20260505075429 11 150 3.2 6.4 0.00 0.00 0.00 90 1014.6
20260505074927 11 178 3.2 4.8 0.00 0.00 0.00 90 1014.5
20260505074424 11 170 1.6 3.2 0.00 0.00 0.00 90 1014.3
20260505073921 11 174 3.2 3.2 0.00 0.00 0.00 90 1014.5
20260505073419 11 165 3.2 4.8 0.00 0.00 0.00 90 1014.2
20260505072915 11 167 3.2 4.8 0.00 0.00 0.00 89 1014.4
20260505072411 11 176 3.2 3.2 0.00 0.00 0.00 89 1014.3
20260505071908 11 166 3.2 4.8 0.00 0.00 0.00 89 1014.1
20260505071404 11 174 3.2 3.2 0.00 0.00 0.00 90 1014.4
20260505070902 11 159 1.6 4.8 0.00 0.00 0.00 89 1014.0
20260505070358 11 159 1.6 3.2 0.00 0.00 0.00 90 1013.9
20260505065854 11 166 0.0 3.2 0.00 0.00 0.00 90 1013.9
20260505065351 11 154 0.0 1.6 0.00 0.00 0.00 90 1014.1
20260505064848 11 149 1.6 3.2 0.00 0.00 0.00 90 1014.0
20260505064345 11 190 3.2 3.2 0.00 0.00 0.00 89 1014.0
20260505063843 11 205 3.2 3.2 0.00 0.00 0.00 89 1014.1
20260505063339 11 186 1.6 3.2 0.00 0.00 0.00 89 1014.1
20260505062835 11 209 1.6 3.2 0.00 0.00 0.00 88 1014.0
20260505062333 11 193 3.2 6.4 0.00 0.00 0.00 88 1013.9
20260505061830 11 180 4.8 9.7 0.00 0.00 0.00 88 1013.9
20260505061328 11 152 0.0 6.4 0.00 0.00 0.00 88 1013.8
20260505060825 11 199 1.6 4.8 0.00 0.00 0.00 88 1013.6
20260505060322 11 186 6.4 9.7 0.00 0.00 0.00 88 1013.8
20260505055817 11 180 0.0 11.3 0.00 0.00 0.00 88 1014.0
20260505055314 11 267 6.4 11.3 0.00 0.00 0.00 88 1013.9
20260505054811 11 345 3.2 6.4 0.00 0.00 0.00 88 1013.6
20260505054308 11 207 9.7 12.9 0.00 0.00 0.00 88 1013.7
20260505053807 11 265 6.4 9.7 0.00 0.00 0.00 87 1013.8
20260505053303 12 180 6.4 12.9 0.00 0.00 0.00 87 1013.5
20260505052800 12 191 3.2 11.3 0.00 0.00 0.00 87 1013.6
20260505052257 12 211 6.4 16.1 0.00 0.00 0.00 86 1013.5
20260505051754 12 216 4.8 14.5 0.00 0.00 0.00 86 1013.7
20260505051252 12 241 6.4 11.3 0.00 0.00 0.00 86 1013.7
20260505050750 12 209 8.0 11.3 0.00 0.00 0.00 85 1013.7
20260505050248 12 220 6.4 6.4 0.00 0.00 0.00 85 1013.8
20260505041718 13 229 6.4 22.5 0.00 0.00 0.00 82 1012.9
20260505041215 13 183 11.3 14.5 0.00 0.00 0.00 82 1012.8
20260505040712 13 182 6.4 11.3 0.00 0.00 0.00 82 1012.6
20260505040209 13 217 6.4 6.4 0.00 0.00 0.00 81 1012.4
20260505035706 13 151 4.8 9.7 0.00 0.00 0.00 81 1012.1
20260505035202 13 226 3.2 3.2 0.00 0.00 0.00 81 1012.0
20260505034659 13 325 1.6 9.7 0.00 0.00 0.00 80 1012.0
20260505034156 13 229 1.6 11.3 0.00 0.00 0.00 79 1012.3
20260505033652 13 255 6.4 9.7 0.00 0.00 0.00 79 1012.0
20260505033150 14 227 6.4 11.3 0.00 0.00 0.00 79 1012.0
20260505032648 14 127 0.0 6.4 0.00 0.00 0.00 78 1012.0
20260505032144 14 149 0.0 6.4 0.00 0.00 0.00 78 1011.7
20260505031642 15 179 3.2 4.8 0.00 0.00 0.00 77 1011.9
20260505031137 15 192 1.6 6.4 0.00 0.00 0.00 77 1011.6
20260505030635 15 284 4.8 9.7 0.00 0.00 0.00 76 1011.8
20260505030130 15 282 1.6 11.3 0.00 0.00 0.00 75 1011.7
20260505025626 16 182 8.0 12.9 0.00 0.00 0.00 74 1011.4
20260505025125 16 207 4.8 9.7 0.00 0.00 0.00 73 1011.5
20260505024622 16 115 3.2 9.7 0.00 0.00 0.00 73 1011.5
20260505024119 16 166 0.0 3.2 0.00 0.00 0.00 72 1011.5
20260505023617 17 187 1.6 6.4 0.00 0.00 0.00 72 1011.3
20260505023114 17 298 1.6 6.4 0.00 0.00 0.00 71 1011.4
20260505022611 17 274 6.4 9.7 0.00 0.00 0.00 70 1011.4
20260505022108 17 198 4.8 11.3 0.00 0.00 0.00 70 1011.4
20260505021605 18 163 3.2 6.4 0.00 0.00 0.00 69 1011.3
20260505021102 18 266 9.7 14.5 0.00 0.00 0.00 68 1011.3
20260505020602 19 284 3.2 4.8 0.00 0.00 0.00 66 1011.4
20260505020059 19 208 1.6 16.1 0.00 0.00 0.00 66 1011.3
20260505015556 20 109 4.8 9.7 0.00 0.00 0.00 65 1011.4
20260505015053 20 45 1.6 1.6 0.00 0.00 0.00 64 1011.3
20260505014549 20 268 1.6 4.8 0.00 0.00 0.00 64 1011.5
20260505014047 20 200 6.4 9.7 0.00 0.00 0.00 64 1011.2
20260505013544 20 199 3.2 6.4 0.00 0.00 0.00 63 1011.4
20260505013041 21 321 3.2 3.2 0.00 0.00 0.00 62 1011.4
20260505012539 21 160 1.6 3.2 0.00 0.00 0.00 62 1011.5
20260505012036 21 285 3.2 6.4 0.00 0.00 0.00 63 1011.4
20260505011531 21 225 3.2 9.7 0.00 0.00 0.00 61 1011.3
20260505011028 21 244 3.2 9.7 0.00 0.00 0.00 61 1011.4
20260505010524 21 202 4.8 6.4 0.00 0.00 0.00 61 1011.3
20260505010021 21 233 4.8 9.7 0.00 0.00 0.00 61 1011.5
20260505005517 22 301 3.2 6.4 0.00 0.00 0.00 60 1011.4
20260505005015 22 237 1.6 4.8 0.00 0.00 0.00 60 1011.4
20260505004512 22 247 3.2 6.4 0.00 0.00 0.00 60 1011.7
20260505004008 23 217 1.6 6.4 0.00 0.00 0.00 58 1011.4
20260505003505 22 252 8.0 11.3 0.00 0.00 0.00 60 1011.6
20260505003002 22 180 4.8 11.3 0.00 0.00 0.00 61 1011.5
20260505002457 23 215 9.7 12.9 0.00 0.00 0.00 59 1011.5
20260505001956 23 205 4.8 6.4 0.00 0.00 0.00 58 1011.3
20260505001453 23 236 4.8 11.3 0.00 0.00 0.00 59 1011.3
20260505000950 23 195 6.4 9.7 0.00 0.00 0.00 58 1011.5
20260505000448 22 169 14.5 16.1 0.00 0.00 0.00 60 1011.4
20260504235945 22 196 6.4 12.9 0.00 0.00 0.00 60 1011.6
20260504235442 22 213 4.8 6.4 0.00 0.00 0.00 58 1011.6
20260504234938 22 217 12.9 14.5 0.00 0.00 0.00 57 1011.9
20260504234436 23 232 8.0 9.7 0.00 0.00 0.00 57 1011.5
20260504233932 22 197 4.8 12.9 0.00 0.00 0.00 59 1011.7
20260504233428 23 165 0.0 6.4 0.00 0.00 0.00 56 1011.8
20260504232925 23 203 0.0 9.7 0.00 0.00 0.00 56 1011.7
20260504232422 22 248 6.4 9.7 0.00 0.00 0.00 57 1011.8
20260504231919 23 295 3.2 14.5 0.00 0.00 0.00 58 1011.8
20260504231415 22 236 8.0 9.7 0.00 0.00 0.00 58 1011.9
20260504230912 23 284 6.4 9.7 0.00 0.00 0.00 56 1012.0
20260504230409 22 177 4.8 6.4 0.00 0.00 0.00 59 1012.0
20260504225908 22 193 6.4 11.3 0.00 0.00 0.00 59 1012.1
20260504225404 22 138 0.0 3.2 0.00 0.00 0.00 59 1012.0
20260504224902 23 288 6.4 6.4 0.00 0.00 0.00 58 1012.2
20260504224358 22 172 4.8 11.3 0.00 0.00 0.00 61 1012.1
20260504223855 22 208 3.2 9.7 0.00 0.00 0.00 58 1012.2
20260504223350 22 245 3.2 4.8 0.00 0.00 0.00 60 1012.2
20260504222847 22 163 1.6 9.7 0.00 0.00 0.00 59 1012.2
20260504222344 22 163 6.4 12.9 0.00 0.00 0.00 61 1012.4
20260504221843 22 214 4.8 11.3 0.00 0.00 0.00 60 1012.2
20260504221339 22 193 4.8 6.4 0.00 0.00 0.00 61 1012.6
20260504220836 21 202 8.0 14.5 0.00 0.00 0.00 62 1012.5
20260504220333 21 155 8.0 17.7 0.00 0.00 0.00 62 1012.6
20260504215830 21 142 6.4 9.7 0.00 0.00 0.00 62 1012.6
20260504215326 21 134 9.7 16.1 0.00 0.00 0.00 63 1012.6
20260504214822 21 156 6.4 11.3 0.00 0.00 0.00 62 1012.6
20260504214320 21 187 0.0 6.4 0.00 0.00 0.00 62 1012.5
20260504213816 21 181 6.4 12.9 0.00 0.00 0.00 62 1012.9
20260504213312 21 189 9.7 14.5 0.00 0.00 0.00 62 1013.0
20260504212810 21 133 9.7 11.3 0.00 0.00 0.00 61 1012.9
20260504212306 20 129 0.0 4.8 0.00 0.00 0.00 64 1012.9
20260504211804 20 184 8.0 12.9 0.00 0.00 0.00 66 1013.1
20260504211259 20 159 3.2 17.7 0.00 0.00 0.00 66 1013.3
20260504210757 20 205 6.4 9.7 0.00 0.00 0.00 65 1013.1
20260504210254 20 36 4.8 11.3 0.00 0.00 0.00 66 1013.1
20260504205751 19 140 1.6 9.7 0.00 0.00 0.00 67 1013.1
20260504205249 20 137 1.6 11.3 0.00 0.00 0.00 67 1013.6
20260504204747 19 186 3.2 6.4 0.00 0.00 0.00 66 1013.3
20260504204245 19 174 8.0 11.3 0.00 0.00 0.00 66 1013.5
20260504203744 20 155 6.4 14.5 0.00 0.00 0.00 67 1013.7
20260504203241 18 149 3.2 9.7 0.00 0.00 0.00 67 1013.5
20260504202741 18 150 0.0 3.2 0.00 0.00 0.00 66 1013.6
20260504202238 18 155 4.8 14.5 0.00 0.00 0.00 67 1013.6
20260504201735 18 146 9.7 14.5 0.00 0.00 0.00 69 1013.6
20260504201232 18 142 9.7 12.9 0.00 0.00 0.00 68 1013.6
20260504200730 18 204 4.8 9.7 0.00 0.00 0.00 70 1013.7
20260504200225 18 188 1.6 3.2 0.00 0.00 0.00 68 1013.8
20260504195722 17 41 8.0 12.9 0.00 0.00 0.00 70 1013.8
20260504195218 18 125 4.8 9.7 0.00 0.00 0.00 69 1013.8
20260504194716 17 227 3.2 11.3 0.00 0.00 0.00 70 1013.9
20260504194211 18 140 6.4 11.3 0.00 0.00 0.00 70 1013.8
20260504193708 18 183 3.2 9.7 0.00 0.00 0.00 68 1013.9
20260504193206 17 106 6.4 12.9 0.00 0.00 0.00 71 1013.8
20260504192704 18 184 6.4 16.1 0.00 0.00 0.00 69 1014.0
20260504192201 17 181 3.2 12.9 0.00 0.00 0.00 69 1013.9
20260504191700 17 159 14.5 16.1 0.00 0.00 0.00 71 1013.9
20260504191156 17 124 4.8 14.5 0.00 0.00 0.00 73 1013.8
20260504190652 17 117 8.0 11.3 0.00 0.00 0.00 72 1014.0
20260504190148 17 160 3.2 11.3 0.00 0.00 0.00 74 1014.2
20260504185645 16 105 3.2 9.7 0.00 0.00 0.00 74 1014.1
20260504185142 16 179 9.7 12.9 0.00 0.00 0.00 73 1014.1
20260504184638 16 98 6.4 9.7 0.00 0.00 0.00 74 1014.3
20260504184133 16 148 8.0 12.9 0.00 0.00 0.00 75 1014.4
20260504183630 16 153 6.4 11.3 0.00 0.00 0.00 74 1014.2
20260504183128 16 110 6.4 9.7 0.00 0.00 0.00 76 1014.1
20260504182625 16 162 8.0 9.7 0.00 0.00 0.00 76 1014.4
20260504182123 16 195 8.0 9.7 0.00 0.00 0.00 75 1014.3
20260504181620 15 167 11.3 14.5 0.00 0.00 0.00 76 1014.2
20260504181117 15 145 3.2 6.4 0.00 0.00 0.00 77 1014.2
20260504180616 15 185 6.4 9.7 0.00 0.00 0.00 77 1014.2
20260504180115 15 175 8.0 11.3 0.00 0.00 0.00 77 1014.2
20260504175612 15 211 6.4 9.7 0.00 0.00 0.00 76 1014.2
20260504175108 15 125 3.2 6.4 0.00 0.00 0.00 77 1014.1
20260504174607 15 167 8.0 14.5 0.00 0.00 0.00 78 1014.3
20260504174102 15 198 8.0 11.3 0.00 0.00 0.00 76 1014.2
20260504173559 15 155 3.2 14.5 0.00 0.00 0.00 77 1014.1
20260504173057 15 210 8.0 12.9 0.00 0.00 0.00 79 1014.4
20260504172553 15 225 8.0 16.1 0.00 0.00 0.00 80 1014.2
20260504172050 15 163 11.3 14.5 0.00 0.00 0.00 80 1014.4
20260504171547 15 197 1.6 6.4 0.00 0.00 0.00 79 1014.3
20260504171044 14 161 8.0 12.9 0.00 0.00 0.00 80 1014.2
20260504170539 14 144 6.4 12.9 0.00 0.00 0.00 80 1014.2